M I D A S
Marine Information and Data Acquisition System
Tripno 879 of the Zeeleeuw from 2005-04-07 07:15:14 to 2005-04-07 10:26:14
Back to CruiseResearch ActivitiesStationsMapUnderway DataData graphs

EquipmentUnitsComments
TimeDGPSUTC
LatitudeDGPSDM.mWGS84
LongitudeDGPSDM.mWGS84
SpeedMeteo Stationm/sRelative wind speed
DirectionMeteo StationdegRelative wind direction
TemperatureMeteo Stationdeg CelciusAir temperature
PressureMeteo StationPaAtmospheric pressure
HumidityMeteo Station%Relative humidity
Missing or incorrect values are displayed as -999
Metereological data collected by the RV Zeeleeuw from 2005-04-07 07:18:36 to 2005-04-07 10:36:32
Time Latitude Longitude Speed Direction Temperature Pressure Humidity
2005-04-07 07:19 51°13.615 2°56.028 11.1 139 8.4 100050 75
2005-04-07 07:20 51°13.619 2°56.025 4.9 99 8.3 100050 75
2005-04-07 07:21 51°13.646 2°55.954 8 143 8.4 100040 75
2005-04-07 07:22 51°13.684 2°55.842 10.9 136 8.4 100050 75
2005-04-07 07:23 51°13.696 2°55.74 4.1 176 8.4 100040 75
2005-04-07 07:24 51°13.691 2°55.729 7.4 221 8.4 100050 75
2005-04-07 07:25 51°13.742 2°55.697 3.8 293 8.4 100050 75
2005-04-07 07:26 51°13.836 2°55.622 7.5 317 8.4 100040 75
2005-04-07 07:27 51°13.952 2°55.539 3.1 230 8.5 100040 75
2005-04-07 07:28 51°14.065 2°55.459 6.6 282 8.5 100040 75
2005-04-07 07:29 51°14.187 2°55.36 15.6 316 8.5 100030 74
2005-04-07 07:30 51°14.297 2°55.196 13.1 303 8.5 100020 74
2005-04-07 07:31 51°14.418 2°55.02 12.1 276 8.5 100020 75
2005-04-07 07:32 51°14.594 2°54.914 9 260 8.4 100020 76
2005-04-07 07:33 51°14.779 2°54.829 14 271 8.4 99990 77
2005-04-07 07:34 51°14.968 2°54.789 11.5 266 8.4 100010 77
2005-04-07 07:35 51°15.16 2°54.782 10 262 8.4 100000 76
2005-04-07 07:36 51°15.347 2°54.826 9.3 241 8.4 100000 76
2005-04-07 07:37 51°15.53 2°54.904 7.4 238 8.4 100010 77
2005-04-07 07:38 51°15.69 2°55.058 4.6 201 8.4 100010 77
2005-04-07 07:39 51°15.814 2°55.273 4.1 185 8.6 100020 77
2005-04-07 07:40 51°15.932 2°55.518 4.5 180 8.9 100010 76
2005-04-07 07:41 51°16.04 2°55.809 8.5 177 8.8 100020 74
2005-04-07 07:42 51°16.155 2°56.117 6 180 8.7 100020 73
2005-04-07 07:43 51°16.271 2°56.406 8.8 162 8.6 100010 74
2005-04-07 07:44 51°16.379 2°56.686 6.4 179 8.8 100010 74
2005-04-07 07:45 51°16.487 2°56.987 7.5 170 8.8 100010 72
2005-04-07 07:46 51°16.594 2°57.291 8.8 170 8.7 100000 73
2005-04-07 07:47 51°16.697 2°57.593 4.4 203 8.6 100000 73
2005-04-07 07:48 51°16.805 2°57.894 3.5 189 8.5 100000 74
2005-04-07 07:49 51°16.912 2°58.184 5.7 177 9 100010 75
2005-04-07 07:50 51°17.007 2°58.479 7.1 192 9.5 100010 71
2005-04-07 07:51 51°17.097 2°58.808 6.8 173 9.9 100010 68
2005-04-07 07:52 51°17.191 2°59.121 4.7 181 9.6 100010 68
2005-04-07 07:53 51°17.297 2°59.423 6.8 215 9.9 100010 70
2005-04-07 07:54 51°17.425 2°59.701 6.5 214 9.6 100010 70
2005-04-07 07:55 51°17.573 2°59.962 10.2 232 9.2 100010 71
2005-04-07 07:56 51°17.714 3°0.22 8.5 222 8.9 100010 69
2005-04-07 07:57 51°17.836 3°0.45 10 230 8.8 100020 70
2005-04-07 07:58 51°17.891 3°0.64 10.8 163 8.8 100010 73
2005-04-07 07:59 51°17.878 3°0.72 20.1 120 8.7 99980 73
2005-04-07 08:00 51°17.857 3°0.757 18.1 106 8.6 100000 73
2005-04-07 08:01 51°17.827 3°0.789 16.9 82 8.5 99990 73
2005-04-07 08:02 51°17.79 3°0.807 17.1 65 8.5 99930 73
2005-04-07 08:03 51°17.757 3°0.811 15.3 41 8.5 99930 73
2005-04-07 08:04 51°17.728 3°0.792 16.9 7 8.4 99940 75
2005-04-07 08:05 51°17.717 3°0.766 17.7 331 8.5 99920 73
2005-04-07 08:06 51°17.74 3°0.752 22.2 272 8.6 99920 72
2005-04-07 08:07 51°17.763 3°0.755 17.6 282 8.6 99940 73
2005-04-07 08:08 51°17.779 3°0.768 15.7 265 8.4 99950 72
2005-04-07 08:09 51°17.792 3°0.785 13.6 264 8.6 99960 73
2005-04-07 08:10 51°17.802 3°0.805 16.9 278 8.6 99950 73
2005-04-07 08:11 51°17.81 3°0.831 18.5 271 8.5 99960 74
2005-04-07 08:12 51°17.816 3°0.861 12.7 256 8.5 99970 73
2005-04-07 08:13 51°17.821 3°0.89 12.3 259 8.6 99950 73
2005-04-07 08:14 51°17.823 3°0.919 8.4 249 8.6 99970 73
2005-04-07 08:15 51°17.827 3°0.948 13.1 261 8.5 99970 74
2005-04-07 08:16 51°17.832 3°0.977 15.7 263 8.5 99970 74
2005-04-07 08:17 51°17.836 3°1.004 10.3 258 8.6 99970 74
2005-04-07 08:18 51°17.843 3°1.031 11.4 260 8.7 99980 73
2005-04-07 08:19 51°17.85 3°1.057 15.3 266 8.7 99980 72
2005-04-07 08:20 51°17.857 3°1.082 12.8 266 8.8 99980 73
2005-04-07 08:21 51°17.863 3°1.108 17.1 269 8.8 99980 73
2005-04-07 08:22 51°17.87 3°1.135 11.1 260 8.7 99960 72
2005-04-07 08:23 51°17.877 3°1.161 15.6 265 8.7 99980 72
2005-04-07 08:24 51°17.885 3°1.191 13.1 264 8.7 99960 72
2005-04-07 08:25 51°17.894 3°1.219 11.1 258 8.7 99960 70
2005-04-07 08:26 51°17.904 3°1.25 13.7 260 8.7 99970 71
2005-04-07 08:27 51°17.916 3°1.279 12.7 266 8.7 99950 70
2005-04-07 08:28 51°17.927 3°1.308 17.2 277 8.7 99970 70
2005-04-07 08:29 51°17.938 3°1.337 12.9 263 8.7 99960 70
2005-04-07 08:30 51°17.949 3°1.37 14.6 262 8.7 99980 70
2005-04-07 08:31 51°17.959 3°1.405 15.4 269 8.7 99960 69
2005-04-07 08:32 51°17.968 3°1.44 16.5 262 8.7 99960 69
2005-04-07 08:33 51°17.998 3°1.467 13.4 259 8.7 99970 70
2005-04-07 08:34 51°18.078 3°1.491 18.1 236 8.7 99970 70
2005-04-07 08:35 51°18.153 3°1.58 15.8 225 8.7 99990 70
2005-04-07 08:36 51°18.209 3°1.688 13.2 197 8.7 99990 70
2005-04-07 08:37 51°18.238 3°1.805 16.9 169 8.7 100020 69
2005-04-07 08:38 51°18.267 3°1.914 10.5 192 8.7 100020 69
2005-04-07 08:39 51°18.288 3°2.03 15.6 163 8.8 100030 69
2005-04-07 08:40 51°18.308 3°2.153 11.7 175 8.7 100030 69
2005-04-07 08:41 51°18.335 3°2.262 9.3 176 8.7 100040 69
2005-04-07 08:42 51°18.364 3°2.355 9.6 200 8.7 100020 70
2005-04-07 08:43 51°18.401 3°2.437 12.7 216 8.7 99990 70
2005-04-07 08:44 51°18.44 3°2.505 13.4 229 8.7 99990 69
2005-04-07 08:45 51°18.487 3°2.566 13 234 8.7 99990 71
2005-04-07 08:46 51°18.532 3°2.622 13 233 8.7 99980 71
2005-04-07 08:47 51°18.579 3°2.677 13.9 228 8.7 99990 71
2005-04-07 08:48 51°18.625 3°2.731 12.5 238 8.7 99990 71
2005-04-07 08:49 51°18.672 3°2.785 12.7 243 8.7 99990 71
2005-04-07 08:50 51°18.719 3°2.839 15.3 232 8.7 99990 72
2005-04-07 08:51 51°18.764 3°2.902 15.3 224 8.7 99990 73
2005-04-07 08:52 51°18.806 3°2.978 17 217 8.6 99980 72
2005-04-07 08:53 51°18.848 3°3.058 14.9 228 8.6 99990 71
2005-04-07 08:54 51°18.892 3°3.144 17 224 8.6 99980 71
2005-04-07 08:55 51°18.939 3°3.219 14.1 235 8.6 99980 71
2005-04-07 08:56 51°18.989 3°3.281 16.8 240 8.6 99970 72
2005-04-07 08:57 51°19.037 3°3.332 13.1 242 8.6 99980 72
2005-04-07 08:58 51°19.084 3°3.385 12.6 240 8.7 99990 73
2005-04-07 08:59 51°19.13 3°3.454 13.8 221 8.6 99980 74
2005-04-07 09:00 51°19.175 3°3.56 13.5 171 8.6 100010 75
2005-04-07 09:01 51°19.19 3°3.699 13.6 159 8.6 100040 74
2005-04-07 09:02 51°19.202 3°3.842 15.6 154 8.6 100030 74
2005-04-07 09:03 51°19.186 3°3.974 13.4 121 8.6 100050 74
2005-04-07 09:04 51°19.164 3°4.063 13.4 106 8.6 100030 75
2005-04-07 09:05 51°19.135 3°4.121 12 82 8.6 100030 75
2005-04-07 09:06 51°19.098 3°4.147 19 37 8.6 100000 75
2005-04-07 09:07 51°19.062 3°4.106 17.4 11 8.7 99930 74
2005-04-07 09:08 51°19.027 3°4.048 17 21 8.7 99960 73
2005-04-07 09:09 51°18.994 3°3.989 17.2 20 8.8 99970 73
2005-04-07 09:10 51°18.957 3°3.95 17.7 29 8.8 99920 72
2005-04-07 09:11 51°18.92 3°3.912 14.9 23 8.8 99950 72
2005-04-07 09:12 51°18.884 3°3.879 14.9 30 8.7 99940 72
2005-04-07 09:13 51°18.849 3°3.846 19.4 19 8.8 99980 72
2005-04-07 09:14 51°18.814 3°3.805 16.7 14 8.8 99970 70
2005-04-07 09:15 51°18.781 3°3.766 19.4 27 8.8 99990 71
2005-04-07 09:16 51°18.75 3°3.719 18.9 11 8.9 99980 70
2005-04-07 09:17 51°18.718 3°3.664 16.8 15 8.9 99990 71
2005-04-07 09:18 51°18.689 3°3.626 19.5 16 8.9 99960 71
2005-04-07 09:19 51°18.66 3°3.587 15.2 11 8.9 100000 72
2005-04-07 09:20 51°18.635 3°3.544 20.2 19 8.9 99990 72
2005-04-07 09:21 51°18.608 3°3.503 18 21 8.8 99970 72
2005-04-07 09:22 51°18.584 3°3.469 17.6 21 8.8 99990 71
2005-04-07 09:23 51°18.555 3°3.437 18.2 21 8.7 99990 71
2005-04-07 09:24 51°18.523 3°3.378 19.3 18 8.7 99990 72
2005-04-07 09:25 51°18.493 3°3.322 19.5 17 8.7 99990 71
2005-04-07 09:26 51°18.464 3°3.277 19 9 8.7 100000 71
2005-04-07 09:27 51°18.441 3°3.227 16.9 3 8.7 100000 71
2005-04-07 09:28 51°18.414 3°3.162 17.7 11 8.7 100000 70
2005-04-07 09:29 51°18.39 3°3.124 19.7 19 8.7 100000 72
2005-04-07 09:30 51°18.358 3°3.081 16.8 12 8.7 100000 71
2005-04-07 09:31 51°18.331 3°3.051 18.8 18 8.7 100000 72
2005-04-07 09:32 51°18.307 3°3.02 15.9 18 8.7 100010 71
2005-04-07 09:33 51°18.291 3°2.981 16.8 8 8.7 100010 72
2005-04-07 09:34 51°18.297 3°3.01 13.8 18 8.7 99990 72
2005-04-07 09:35 51°18.317 3°3.082 13.9 41 8.7 99970 71
2005-04-07 09:36 51°18.34 3°3.155 16.9 75 8.7 100000 73
2005-04-07 09:37 51°18.331 3°3.217 18.1 48 8.6 99980 72
2005-04-07 09:38 51°18.317 3°3.255 18.9 20 8.6 99980 70
2005-04-07 09:39 51°18.312 3°3.261 20.2 15 8.7 100010 69
2005-04-07 09:40 51°18.293 3°3.232 20.1 16 8.7 100000 70
2005-04-07 09:41 51°18.252 3°3.128 21.9 8 8.7 100010 69
2005-04-07 09:42 51°18.196 3°2.965 22.6 3 8.7 100010 70
2005-04-07 09:43 51°18.131 3°2.768 21.3 11 8.6 100020 72
2005-04-07 09:44 51°18.06 3°2.544 25.7 5 8.6 100010 71
2005-04-07 09:45 51°17.996 3°2.314 19.2 5 8.3 100020 74
2005-04-07 09:46 51°17.931 3°2.085 21 4 8.3 100020 74
2005-04-07 09:47 51°17.871 3°1.874 19.6 13 8.1 100020 77
2005-04-07 09:48 51°17.81 3°1.656 22.7 10 7.6 100000 82
2005-04-07 09:49 51°17.749 3°1.44 22.4 8 7.4 100010 84
2005-04-07 09:50 51°17.692 3°1.24 21.4 7 7.1 100000 86
2005-04-07 09:51 51°17.634 3°1.025 20.8 12 7.1 99950 88
2005-04-07 09:52 51°17.571 3°0.812 21 4 7.2 99970 89
2005-04-07 09:53 51°17.508 3°0.58 22.1 7 7.1 100000 89
2005-04-07 09:54 51°17.443 3°0.349 23.6 10 7.1 99980 90
2005-04-07 09:55 51°17.379 3°0.117 20.9 12 7.1 99970 90
2005-04-07 09:56 51°17.316 2°59.884 18.7 10 7 99990 92
2005-04-07 09:57 51°17.251 2°59.653 21.5 9 6.9 99960 93
2005-04-07 09:58 51°17.186 2°59.43 20.2 6 7 100010 94
2005-04-07 09:59 51°17.117 2°59.188 20.6 4 7 99980 94
2005-04-07 10:00 51°17.05 2°58.962 19.8 6 7.1 99970 95
2005-04-07 10:01 51°16.968 2°58.749 20.3 8 7 100010 95
2005-04-07 10:02 51°16.887 2°58.525 22.2 7 7.1 100000 95
2005-04-07 10:03 51°16.805 2°58.297 18.7 7 7.1 99980 95
2005-04-07 10:04 51°16.724 2°58.066 18.4 10 7.1 100000 95
2005-04-07 10:05 51°16.642 2°57.829 16.7 9 7.2 99980 94
2005-04-07 10:06 51°16.563 2°57.608 20.3 9 7.3 99980 93
2005-04-07 10:07 51°16.478 2°57.363 21 9 7.4 99990 92
2005-04-07 10:08 51°16.396 2°57.125 20 5 7.4 100010 93
2005-04-07 10:09 51°16.313 2°56.883 20.6 9 7.4 100000 93
2005-04-07 10:10 51°16.229 2°56.642 17.5 8 7.5 100000 92
2005-04-07 10:11 51°16.147 2°56.401 22.2 3 7.6 100010 92
2005-04-07 10:12 51°16.071 2°56.181 18.7 6 7.6 99990 91
2005-04-07 10:13 51°15.975 2°55.982 18.2 15 7.5 100000 92
2005-04-07 10:14 51°15.861 2°55.789 19.8 22 7.5 99990 93
2005-04-07 10:15 51°15.744 2°55.605 20.3 17 7.6 99980 92
2005-04-07 10:16 51°15.622 2°55.434 19.9 25 7.6 99970 91
2005-04-07 10:17 51°15.498 2°55.264 21.2 18 7.6 99980 89
2005-04-07 10:18 51°15.373 2°55.098 22.4 21 7.5 99960 90
2005-04-07 10:19 51°15.248 2°54.934 21.9 31 7.5 99950 88
2005-04-07 10:20 51°15.117 2°54.786 22.2 31 7.6 99920 86
2005-04-07 10:21 51°14.944 2°54.739 21.6 53 7.5 99950 86
2005-04-07 10:22 51°14.788 2°54.763 18.1 62 7.6 99960 84
2005-04-07 10:23 51°14.672 2°54.841 20.3 64 7.7 99970 82
2005-04-07 10:24 51°14.524 2°54.888 20.4 62 7.8 99940 80
2005-04-07 10:25 51°14.378 2°55.052 16.3 97 8 99990 79
2005-04-07 10:26 51°14.257 2°55.276 16.5 112 8.2 100060 78
2005-04-07 10:27 51°14.157 2°55.393 9.7 109 8.3 100060 78
2005-04-07 10:28 51°14.06 2°55.464 6.6 42 8.5 100060 76
2005-04-07 10:29 51°13.986 2°55.524 3.5 73 8.6 100040 75
2005-04-07 10:30 51°13.911 2°55.581 3.7 349 8.8 100040 74
2005-04-07 10:31 51°13.818 2°55.64 6.9 41 8.9 100040 73
2005-04-07 10:32 51°13.74 2°55.726 4.2 121 9.1 100050 72
2005-04-07 10:33 51°13.69 2°55.839 6.6 111 9.2 100060 72
2005-04-07 10:34 51°13.661 2°55.945 8.5 140 9.3 100060 71
2005-04-07 10:35 51°13.66 2°55.965 10.7 135 9.3 100060 70